Time,TemperatureF,DewpointF,PressureIn,WindDirection,WindDirectionDegrees,WindSpeedMPH,WindSpeedGustMPH,Humidity,HourlyPrecipIn,Conditions,Clouds,dailyrainin,SoftwareType,DateUTC
2013-01-17 00:07:00,41.2,41.0,29.98,West,259,0.0,-999.0,99,-99.99,,,0.00,weatherlink.com 1.10,2013-01-17 05:07:00,
2013-01-17 00:22:00,41.2,41.0,29.98,West,259,0.0,-999.0,99,-99.99,,,0.00,weatherlink.com 1.10,2013-01-17 05:22:00,
2013-01-17 00:37:00,41.2,41.0,29.98,West,259,0.0,-999.0,99,-99.99,,,0.00,weatherlink.com 1.10,2013-01-17 05:37:00,
2013-01-17 00:52:00,41.2,41.0,29.99,West,259,0.0,-999.0,99,-99.99,,,0.00,weatherlink.com 1.10,2013-01-17 05:52:00,
2013-01-17 01:07:00,41.2,41.0,29.99,West,259,0.0,-999.0,99,-99.99,,,0.00,weatherlink.com 1.10,2013-01-17 06:07:00,
2013-01-17 01:22:00,41.2,41.0,29.99,West,259,0.0,-999.0,99,-99.99,,,0.00,weatherlink.com 1.10,2013-01-17 06:22:00,
2013-01-17 01:37:00,41.2,41.0,30.01,West,259,0.0,-999.0,99,-99.99,,,0.00,weatherlink.com 1.10,2013-01-17 06:37:00,
2013-01-17 01:52:00,41.3,41.0,30.02,WSW,251,0.0,-999.0,99,-99.99,,,0.01,weatherlink.com 1.10,2013-01-17 06:52:00,
2013-01-17 02:07:00,41.3,41.0,30.01,West,281,0.0,-999.0,99,-99.99,,,0.02,weatherlink.com 1.10,2013-01-17 07:07:00,
2013-01-17 02:22:00,41.5,41.0,30.02,West,281,0.0,-999.0,99,-99.99,,,0.02,weatherlink.com 1.10,2013-01-17 07:22:00,
2013-01-17 02:37:00,41.5,41.0,30.02,West,281,0.0,-999.0,99,-99.99,,,0.02,weatherlink.com 1.10,2013-01-17 07:37:00,
2013-01-17 02:52:00,41.6,41.0,30.02,West,281,0.0,-999.0,99,-99.99,,,0.02,weatherlink.com 1.10,2013-01-17 07:52:00,
2013-01-17 03:07:00,41.6,41.0,30.02,West,281,0.0,-999.0,99,-99.99,,,0.03,weatherlink.com 1.10,2013-01-17 08:07:00,
2013-01-17 03:22:00,41.6,41.0,29.99,West,281,0.0,-999.0,99,-99.99,,,0.03,weatherlink.com 1.10,2013-01-17 08:22:00,
2013-01-17 03:37:00,41.6,41.0,29.99,West,281,0.0,-999.0,99,-99.99,,,0.03,weatherlink.com 1.10,2013-01-17 08:37:00,
2013-01-17 03:52:00,41.6,41.0,30.00,West,281,0.0,-999.0,99,-99.99,,,0.03,weatherlink.com 1.10,2013-01-17 08:52:00,
2013-01-17 04:07:00,41.6,41.0,30.01,West,281,0.0,-999.0,99,-99.99,,,0.03,weatherlink.com 1.10,2013-01-17 09:07:00,
2013-01-17 04:22:00,41.6,41.0,30.01,West,281,0.0,-999.0,99,-99.99,,,0.03,weatherlink.com 1.10,2013-01-17 09:22:00,
2013-01-17 04:37:00,41.6,41.0,30.00,West,281,0.0,-999.0,99,-99.99,,,0.03,weatherlink.com 1.10,2013-01-17 09:37:00,
2013-01-17 04:52:00,41.6,41.0,30.00,West,281,0.0,-999.0,99,-99.99,,,0.03,weatherlink.com 1.10,2013-01-17 09:52:00,
2013-01-17 05:07:00,41.6,41.0,30.02,West,281,0.0,-999.0,99,-99.99,,,0.03,weatherlink.com 1.10,2013-01-17 10:07:00,
2013-01-17 05:22:00,41.5,41.0,30.02,West,281,0.0,-999.0,99,-99.99,,,0.03,weatherlink.com 1.10,2013-01-17 10:22:00,
2013-01-17 05:37:00,41.5,41.0,30.02,West,281,0.0,-999.0,99,-99.99,,,0.03,weatherlink.com 1.10,2013-01-17 10:37:00,
2013-01-17 05:52:00,41.5,41.0,30.02,West,281,0.0,-999.0,99,-99.99,,,0.03,weatherlink.com 1.10,2013-01-17 10:52:00,
2013-01-17 06:07:00,41.5,41.0,30.02,West,281,0.0,-999.0,99,-99.99,,,0.03,weatherlink.com 1.10,2013-01-17 11:07:00,
2013-01-17 06:22:00,41.3,41.0,30.03,West,281,0.0,-999.0,99,-99.99,,,0.03,weatherlink.com 1.10,2013-01-17 11:22:00,
2013-01-17 06:37:00,41.3,41.0,30.04,West,281,0.0,-999.0,99,-99.99,,,0.03,weatherlink.com 1.10,2013-01-17 11:37:00,
2013-01-17 06:52:00,41.3,41.0,30.06,West,281,0.0,-999.0,99,-99.99,,,0.03,weatherlink.com 1.10,2013-01-17 11:52:00,
2013-01-17 07:07:00,41.2,41.0,30.06,West,281,0.0,-999.0,99,-99.99,,,0.03,weatherlink.com 1.10,2013-01-17 12:07:00,
2013-01-17 07:22:00,41.2,41.0,30.06,WNW,298,0.0,-999.0,99,-99.99,,,0.03,weatherlink.com 1.10,2013-01-17 12:22:00,
2013-01-17 07:37:00,40.8,41.0,30.05,WNW,298,0.0,-999.0,99,-99.99,,,0.03,weatherlink.com 1.10,2013-01-17 12:37:00,
2013-01-17 07:52:00,40.6,40.0,30.07,WNW,300,0.0,-999.0,99,-99.99,,,0.03,weatherlink.com 1.10,2013-01-17 12:52:00,
2013-01-17 08:07:00,39.9,40.0,30.09,WNW,300,0.0,-999.0,99,-99.99,,,0.03,weatherlink.com 1.10,2013-01-17 13:07:00,
2013-01-17 08:22:00,39.8,40.0,30.09,WNW,294,1.0,-999.0,99,-99.99,,,0.03,weatherlink.com 1.10,2013-01-17 13:22:00,
2013-01-17 08:37:00,39.8,39.0,30.10,NNW,344,0.0,-999.0,98,-99.99,,,0.03,weatherlink.com 1.10,2013-01-17 13:37:00,
2013-01-17 08:52:00,39.9,39.0,30.11,North,0,1.0,-999.0,96,-99.99,,,0.03,weatherlink.com 1.10,2013-01-17 13:52:00,
2013-01-17 09:07:00,40.1,38.0,30.11,WSW,255,2.0,-999.0,90,-99.99,,,0.03,weatherlink.com 1.10,2013-01-17 14:07:00,
2013-01-17 09:22:00,41.1,36.0,30.11,NW,322,0.0,-999.0,83,-99.99,,,0.03,weatherlink.com 1.10,2013-01-17 14:22:00,
2013-01-17 09:38:00,41.6,36.0,30.13,NW,319,0.0,-999.0,79,-99.99,,,0.03,weatherlink.com 1.10,2013-01-17 14:38:00,
2013-01-17 09:53:00,41.9,34.0,30.13,NW,319,0.0,-999.0,74,-99.99,,,0.03,weatherlink.com 1.10,2013-01-17 14:53:00,
2013-01-17 10:07:00,42.2,33.0,30.12,West,261,0.0,-999.0,71,-99.99,,,0.03,weatherlink.com 1.10,2013-01-17 15:07:00,
2013-01-17 10:22:00,42.6,33.0,30.11,West,261,0.0,-999.0,69,-99.99,,,0.03,weatherlink.com 1.10,2013-01-17 15:22:00,
2013-01-17 10:37:00,43.1,32.0,30.12,WNW,284,2.0,-999.0,66,-99.99,,,0.03,weatherlink.com 1.10,2013-01-17 15:37:00,
2013-01-17 10:52:00,43.3,31.0,30.12,NNW,331,1.0,-999.0,63,-99.99,,,0.03,weatherlink.com 1.10,2013-01-17 15:52:00,
2013-01-17 11:07:00,43.5,32.0,30.11,NW,308,0.0,-999.0,63,-99.99,,,0.03,weatherlink.com 1.10,2013-01-17 16:07:00,
2013-01-17 11:22:00,43.5,31.0,30.11,NNW,348,0.0,-999.0,61,-99.99,,,0.03,weatherlink.com 1.10,2013-01-17 16:22:00,
2013-01-17 11:37:00,43.5,31.0,30.11,WNW,285,0.0,-999.0,62,-99.99,,,0.03,weatherlink.com 1.10,2013-01-17 16:37:00,
2013-01-17 11:52:00,43.8,31.0,30.10,NE,40,2.0,-999.0,62,-99.99,,,0.03,weatherlink.com 1.10,2013-01-17 16:52:00,
2013-01-17 12:07:00,43.5,31.0,30.09,North,359,0.0,-999.0,61,-99.99,,,0.03,weatherlink.com 1.10,2013-01-17 17:07:00,
2013-01-17 12:22:00,43.8,32.0,30.08,NNE,31,0.0,-999.0,63,-99.99,,,0.03,weatherlink.com 1.10,2013-01-17 17:22:00,
2013-01-17 12:37:00,44.1,32.0,30.08,NNE,20,0.0,-999.0,62,-99.99,,,0.03,weatherlink.com 1.10,2013-01-17 17:37:00,
2013-01-17 12:52:00,43.8,31.0,30.07,North,356,1.0,-999.0,60,-99.99,,,0.03,weatherlink.com 1.10,2013-01-17 17:52:00,
2013-01-17 13:07:00,43.8,31.0,30.07,North,351,0.0,-999.0,62,-99.99,,,0.03,weatherlink.com 1.10,2013-01-17 18:07:00,
2013-01-17 13:22:00,43.8,31.0,30.07,ENE,59,5.0,-999.0,62,-99.99,,,0.03,weatherlink.com 1.10,2013-01-17 18:22:00,
2013-01-17 13:37:00,43.6,32.0,30.06,North,1,0.0,-999.0,63,-99.99,,,0.03,weatherlink.com 1.10,2013-01-17 18:37:00,
2013-01-17 13:52:00,43.2,31.0,30.06,North,358,1.0,-999.0,63,-99.99,,,0.03,weatherlink.com 1.10,2013-01-17 18:52:00,
2013-01-17 14:07:00,43.1,31.0,30.09,North,1,1.0,-999.0,63,-99.99,,,0.03,weatherlink.com 1.10,2013-01-17 19:07:00,
2013-01-17 14:22:00,42.8,31.0,30.07,NE,50,0.0,-999.0,63,-99.99,,,0.03,weatherlink.com 1.10,2013-01-17 19:22:00,
2013-01-17 14:37:00,42.5,31.0,30.07,North,6,0.0,-999.0,65,-99.99,,,0.03,weatherlink.com 1.10,2013-01-17 19:37:00,
2013-01-17 14:52:00,42.2,31.0,30.07,NE,43,0.0,-999.0,65,-99.99,,,0.03,weatherlink.com 1.10,2013-01-17 19:52:00,
2013-01-17 15:07:00,42.2,32.0,30.08,NE,43,0.0,-999.0,67,-99.99,,,0.03,weatherlink.com 1.10,2013-01-17 20:07:00,
2013-01-17 15:22:00,42.1,32.0,30.09,NE,43,0.0,-999.0,68,-99.99,,,0.03,weatherlink.com 1.10,2013-01-17 20:22:00,
2013-01-17 15:37:00,41.9,33.0,30.09,NE,53,0.0,-999.0,70,-99.99,,,0.03,weatherlink.com 1.10,2013-01-17 20:37:00,
2013-01-17 15:52:00,41.6,33.0,30.10,NE,53,0.0,-999.0,72,-99.99,,,0.03,weatherlink.com 1.10,2013-01-17 20:52:00,
2013-01-17 16:07:00,41.2,33.0,30.10,ENE,58,0.0,-999.0,73,-99.99,,,0.03,weatherlink.com 1.10,2013-01-17 21:07:00,
2013-01-17 16:22:00,40.9,33.0,30.11,NE,55,1.0,-999.0,72,-99.99,,,0.03,weatherlink.com 1.10,2013-01-17 21:22:00,
2013-01-17 16:37:00,40.8,32.0,30.10,SE,140,4.0,-999.0,72,-99.99,,,0.03,weatherlink.com 1.10,2013-01-17 21:37:00,
2013-01-17 16:52:00,40.6,33.0,30.10,SE,136,0.0,-999.0,73,-99.99,,,0.03,weatherlink.com 1.10,2013-01-17 21:52:00,
2013-01-17 17:07:00,40.3,33.0,30.11,SE,136,0.0,-999.0,75,-99.99,,,0.03,weatherlink.com 1.10,2013-01-17 22:07:00,
2013-01-17 17:22:00,40.1,33.0,30.10,SE,136,0.0,-999.0,75,-99.99,,,0.03,weatherlink.com 1.10,2013-01-17 22:22:00,
2013-01-17 17:37:00,39.8,33.0,30.10,SE,136,0.0,-999.0,76,-99.99,,,0.03,weatherlink.com 1.10,2013-01-17 22:37:00,
2013-01-17 17:52:00,39.6,33.0,30.10,SE,136,0.0,-999.0,77,-99.99,,,0.03,weatherlink.com 1.10,2013-01-17 22:52:00,
2013-01-17 18:07:00,39.3,33.0,30.11,SE,136,0.0,-999.0,78,-99.99,,,0.03,weatherlink.com 1.10,2013-01-17 23:07:00,
2013-01-17 18:22:00,39.2,33.0,30.12,SE,136,0.0,-999.0,78,-99.99,,,0.03,weatherlink.com 1.10,2013-01-17 23:22:00,
2013-01-17 18:37:00,39.1,33.0,30.13,SE,136,0.0,-999.0,78,-99.99,,,0.03,weatherlink.com 1.10,2013-01-17 23:37:00,
2013-01-17 18:52:00,38.9,33.0,30.12,SE,136,0.0,-999.0,78,-99.99,,,0.03,weatherlink.com 1.10,2013-01-17 23:52:00,
2013-01-17 19:07:00,38.9,33.0,30.11,SE,136,0.0,-999.0,78,-99.99,,,0.03,weatherlink.com 1.10,2013-01-18 00:07:00,
2013-01-17 19:22:00,38.8,33.0,30.08,SE,136,0.0,-999.0,79,-99.99,,,0.03,weatherlink.com 1.10,2013-01-18 00:22:00,
2013-01-17 19:37:00,38.6,33.0,30.10,SE,135,0.0,-999.0,79,-99.99,,,0.03,weatherlink.com 1.10,2013-01-18 00:37:00,
2013-01-17 19:52:00,38.5,32.0,30.09,NNW,338,1.0,-999.0,78,-99.99,,,0.03,weatherlink.com 1.10,2013-01-18 00:52:00,
2013-01-17 20:07:00,38.5,31.0,30.07,North,359,1.0,-999.0,75,-99.99,,,0.03,weatherlink.com 1.10,2013-01-18 01:07:00,
2013-01-17 20:22:00,38.6,31.0,30.09,NNW,346,0.0,-999.0,74,-99.99,,,0.03,weatherlink.com 1.10,2013-01-18 01:22:00,
2013-01-17 20:37:00,38.6,31.0,30.08,NNW,346,0.0,-999.0,75,-99.99,,,0.03,weatherlink.com 1.10,2013-01-18 01:37:00,
2013-01-17 20:52:00,38.5,31.0,30.08,NNW,346,0.0,-999.0,75,-99.99,,,0.03,weatherlink.com 1.10,2013-01-18 01:52:00,
2013-01-17 21:07:00,38.2,31.0,30.05,NNW,346,0.0,-999.0,75,-99.99,,,0.03,weatherlink.com 1.10,2013-01-18 02:07:00,
2013-01-17 21:22:00,38.0,30.0,30.07,NNW,327,0.0,-999.0,74,-99.99,,,0.03,weatherlink.com 1.10,2013-01-18 02:22:00,
2013-01-17 21:37:00,38.0,30.0,30.05,NW,321,3.0,-999.0,73,-99.99,,,0.03,weatherlink.com 1.10,2013-01-18 02:37:00,
2013-01-17 21:52:00,38.2,30.0,30.06,North,349,0.0,-999.0,72,-99.99,,,0.03,weatherlink.com 1.10,2013-01-18 02:52:00,
2013-01-17 22:07:00,38.3,30.0,30.07,North,349,0.0,-999.0,72,-99.99,,,0.03,weatherlink.com 1.10,2013-01-18 03:07:00,
2013-01-17 22:22:00,38.3,30.0,30.08,North,349,0.0,-999.0,72,-99.99,,,0.03,weatherlink.com 1.10,2013-01-18 03:22:00,
2013-01-17 22:37:00,38.2,30.0,30.08,North,349,0.0,-999.0,73,-99.99,,,0.03,weatherlink.com 1.10,2013-01-18 03:37:00,
2013-01-17 22:52:00,38.0,30.0,30.09,NW,315,0.0,-999.0,73,-99.99,,,0.03,weatherlink.com 1.10,2013-01-18 03:52:00,
2013-01-17 23:07:00,37.9,31.0,30.04,NNW,338,0.0,-999.0,75,-99.99,,,0.03,weatherlink.com 1.10,2013-01-18 04:07:00,
2013-01-17 23:22:00,37.8,30.0,30.07,NW,324,0.0,-999.0,74,-99.99,,,0.03,weatherlink.com 1.10,2013-01-18 04:22:00,
2013-01-17 23:37:00,37.8,31.0,30.05,WSW,255,3.0,-999.0,75,-99.99,,,0.03,weatherlink.com 1.10,2013-01-18 04:37:00,
2013-01-17 23:52:00,37.9,30.0,30.07,West,275,0.0,-999.0,74,-99.99,,,0.03,weatherlink.com 1.10,2013-01-18 04:52:00,